Regional Weather Roundup
Issued by NWS Charleston, SC

Current Version | Previous Version | Graphics & Text | Print | Product List | Glossary On
Versions: 1 2 3 4 5 6 7 8 9 10 11 12 13 14 15 16 17 18 19 20 21 22 23 24 25 26 27 28 29 30 31 32 33 34 35 36 37 38 39 40 41 42 43 44 45 46 47 48 49 50
673
ASUS42 KCHS 291727
RWRCHS

REGIONAL WEATHER ROUNDUP
NATIONAL WEATHER SERVICE CHARLESTON SC
100 PM EDT WED MAR 29 2017

NOTE: "FAIR" INDICATES FEW OR NO CLOUDS BELOW 12,000 FEET WITH NO
SIGNIFICANT WEATHER AND/OR OBSTRUCTIONS TO VISIBILITY.

NOT ALL STATIONS ARE QUALITY CONTROLLED. USE DATA WITH CAUTION...
ESPECIALLY DEWPOINT OBSERVATIONS.

SCZ027-030-031-034>040-042>050-291800-
...SOUTHEAST SOUTH CAROLINA...

CITY           SKY/WX    TMP DP  RH WIND       PRES   REMARKS
N CHARLESTON   MOSUNNY   81  52  36 NE7       30.02F
WATERFRONT PRK   N/A     72  62  71 E10       30.00F
JOHNS ISLAND   FAIR      79  61  53 E10       30.03S
PINOPOLIS        N/A     68  61  77 NW6       29.97S
MONCKS CORNER  FAIR      79  50  36 N7        30.03S
SUMMERVILLE    FAIR      79  52  38 NE5       30.03F
BEAUFORT MCAS  SUNNY     79  58  48 E5        30.03F
BEAUFORT ARPT  FAIR      77  59  53 NE6       30.03S HAZE
HILTON HEAD IS SUNNY     73  57  56 NE8       30.06S
WALTERBORO     SUNNY     81  52  36 CALM      30.03F
ALLENDALE      FAIR      81  52  36 NW6       30.02F

...SOUTHERN MIDLANDS AND PEE DEE...

CITY           SKY/WX    TMP DP  RH WIND       PRES   REMARKS
GEORGETOWN     FAIR      77  54  44 SE12      30.04S
KINGSTREE      FAIR      79  48  34 NE3       30.03F
ORANGEBURG     SUNNY     79  51  37 NE7       30.04F
BARNWELL       FAIR      81  52  36 N6        30.03F
AIKEN          FAIR      77  50  38 CALM      30.07F
MANNING        FAIR      79  50  36 NE7       30.03F
COLUMBIA       MOSUNNY   79  51  37 N6        30.04F
SUMTER         MOSUNNY   78  51  39 CALM      30.02F
FLORENCE       SUNNY     77  56  48 N7        30.04F
MYRTLE BEACH   MOSUNNY   75  55  50 SE12      30.04F
N MYRTLE BEACH MOSUNNY   72  58  61 SE12      30.03S

$$

GAZ063-065-086>088-099>101-113>116-118-119-134>141-150-291800-
...SOUTHEAST GEORGIA...

CITY           SKY/WX    TMP DP  RH WIND       PRES   REMARKS
SAVANNAH ARPT  PTSUNNY   83  56  39 E7        30.03F
HUNTER AAF     MOSUNNY   80  60  51 E12       30.01F
FORT STEWART   MOSUNNY   83  58  43 CALM      30.01S
STATESBORO     SUNNY     82  57  42 CALM      30.03F
SYLVANIA       SUNNY    N/A N/A N/A SE3       30.04F
CLAXTON        FAIR      83  58  43 N5        30.03F

...CSRA...CENTRAL AND FAR SOUTHEAST GEORGIA...

CITY           SKY/WX    TMP DP  RH WIND       PRES   REMARKS
THOMSON        SUNNY     77  50  38 NE5       30.10F
AUGUSTA-BUSH   SUNNY     81  51  35 CALM      30.03F
AUGUSTA-DANIEL SUNNY     80  48  32 VRB3      30.06F
SWAINSBORO     FAIR      81  54  39 CALM      30.04F
VIDALIA        MOSUNNY   82  55  39 S3        30.03F
EASTMAN        FAIR      84  41  21 CALM      30.05F
HAZLEHURST     FAIR      84  64  50 CALM      30.02F
ALMA           MOSUNNY   82  63  52 SW6       30.03F
WAYCROSS       MOSUNNY   88  67  48 SW8       30.02F HX  90
JESUP          FAIR      84  59  42 NW7       30.02F
BAXLEY         FAIR      84  66  54 W3        30.02F
BRUNSWICK      PTSUNNY   86  64  48 SE7       30.03S
SAINT SIMONS   MOSUNNY   77  64  64 E9        30.03F

$$

SCZ027-028-034-036>038-045-046-048>050-GAZ119-141-291800-
...LAKE AND SUPPLEMENTAL COASTAL OBSERVATIONS...

STATION/POSITION TIME  TEMP    WIND        PRES    WAVE   SWELL
                       AIR SEA DIR/SP/G            HT/PER HT/PER/DIR
                 (UTC) (F)     (DEG/KT/KT) (MB)    (FT/S) (FT/S/D)
WINYAH BAY       1630   68      70/  9     1017.0S
LAKE MURRAY      1720   71     190/  5/  7 1016.6
ACE BASIN NERRS  1630   77     180/  2     1017.0S
FORT PULASKI     1700   69 66   70/ 10/ 13 1017.7
SAPELO ISLAND    1700   79      90/  6     1017.0

$$

ANZ835-935-AMZ111-154-330-350-352-354-370-450-454-472-291800-
...C-MAN AND BUOY OBSERVATIONS...

STATION/POSITION TIME  TEMP    WIND        PRES    WAVE   SWELL
                       AIR SEA DIR/SP/G            HT/PER HT/PER/DIR
                 (UTC) (F)     (DEG/KT/KT) (MB)    (FT/S) (FT/S/D)
BUOY 41004       1650   70 71   10/  8/  8 1016.2F   5/11   5/120/11
BUOY 41008       1650   67 67  360/  6/  6 1016.7F   3/11   3/130/11
FOLLY BEACH CMAN 1700   69      60/  9/ 11 1017.6F
CAPERS NEARSHORE NOT AVBL
FRIPP NEARSHORE  1708   66 64   60/  6/  8 1016.8F


STATION/POSITION TIME  TEMP    WIND        PRES    WAVE   SWELL
                       AIR SEA DIR/SP/G            HT/PER HT/PER/DIR
                 (UTC) (F)     (DEG/KT/KT) (MB)    (FT/S) (FT/S/D)
5E ST. MARYS GA  1700      69                N/A     3/11   2/120/11
FRYING PAN BUOY  1710   70 73   30/ 14/ 17 1016.6
BUOY 41025       1650   57 73   20/ 19/ 23 1017.4R   7/10   3/140/10
CAPE LOOKOUT NC  1700   58      40/ 17/ 21 1018.0F
BUOY 41002       1650   72 72  250/ 10/ 12 1014.7F   7/10   7/100/10
BUOY 41010       NOT AVBL
ST AUGUSTINE FL  1700   73 68   80/  6/  6 1018.1F


$$




USA.gov is the U.S. government's official web portal to all federal, state and local government web resources and services.